Regional Weather Roundup
Issued by NWS

Home | Current Version | Previous Version | Text Only | Print | Product List | Glossary On
Versions: 1 2 3 4 5 6 7 8 9 10 11 12 13 14 15 16 17 18 19 20 21 22 23 24 25 26 27 28 29 30 31 32 33 34 35 36 37 38 39 40 41 42 43 44 45 46 47 48 49 50
000
ASUS43 KFSD 220210
RWRSD

WEATHER ROUNDUP FOR SOUTH DAKOTA
NATIONAL WEATHER SERVICE SIOUX FALLS SD
900 PM CDT THU AUG 21 2014

NOTE: "FAIR" INDICATES FEW OR NO CLOUDS BELOW 12,000 FEET WITH NO
SIGNIFICANT WEATHER AND/OR OBSTRUCTIONS TO VISIBILITY.


SDZ001>005-009-010-012>017-220300-
NORTHWEST AND NORTH CENTRAL SOUTH DAKOTA

CITY           SKY/WX    TMP DP  RH WIND       PRES   REMARKS
BUFFALO          N/A     69  60  73 NE14      29.89F
FAITH            N/A     73  60  63 E12       29.93F
MOBRIDGE       CLEAR     69  65  86 NE6       29.91R
$$

SDZ012>016-024>037-041>051-057-063-072>074-220300-
SOUTHWEST AND SOUTH CENTRAL SOUTH DAKOTA

CITY           SKY/WX    TMP DP  RH WIND       PRES   REMARKS
RAPID CTY ARPT PTCLDY    72  55  55 NE17      29.95R
PIERRE         CLEAR     75  63  66 NE9       29.88R
CUSTER         MOCLDY    64  54  69 NE6       30.10R
ELLSWORTH AFB  PTCLDY    68  61  78 NE10      29.95F
PHILIP         PTCLDY    75  53  46 E7        29.90R
PINE RIDGE     PTCLDY    74  58  57 E9        29.95R
WINNER         FAIR      78  58  49 N7        29.91R
$$

SDZ004>011-016>023-039-040-220300-
NORTHEAST SOUTH DAKOTA

CITY           SKY/WX    TMP DP  RH WIND       PRES   REMARKS
ABERDEEN       CLEAR     71  66  84 NW6       29.89R
WATERTOWN      CLEAR     73  68  84 CALM      29.88R
SISSETON         N/A     74  71  91 NW3       29.85R
$$

SDZ017-020-022-023-036>040-048>070-220300-
SOUTHEAST SOUTH DAKOTA

CITY           SKY/WX    TMP DP  RH WIND       PRES   REMARKS
SIOUX FALLS    PTCLDY    76  69  79 N6        29.87R
HURON          PTCLDY    73  66  78 N7        29.87R
CHAMBERLAIN    PTCLDY    77  62  61 N3        29.88S
MITCHELL       PTCLDY    74  67  78 N6        29.86R
YANKTON        CLEAR     79  72  78 N6        29.85R
$$

ABBREVIATIONS USED IN REMARKS
   TC - TEMPERATURE IN CELSIUS
  WCI - WIND CHILL INDEX
   HX - HEAT INDEX
  VSB - VISIBILITY




USA.gov is the U.S. government's official web portal to all federal, state and local government web resources and services.